KP4DJT-1 Weather Reports


time (UTC)temp
C
wind
direction
speed
KPH
gust
KPH
rain 1hr
cm
rain 24hr
cm
rain mn
cm
humidity
%
barometer
mb
20260906204018 37 54 3.2 8.0 0.00 0.00 0.00 35 1012.0
20260906203519 37 77 6.4 11.3 0.00 0.00 0.00 34 1012.1
20260906203039 37 167 4.8 12.9 0.00 0.00 0.00 35 1012.2
20260906202519 37 160 8.0 14.5 0.00 0.00 0.00 35 1012.2
20260906202039 37 156 4.8 11.3 0.00 0.00 0.00 35 1012.2
20260906201516 37 116 6.4 11.3 0.00 0.00 0.00 34 1012.3
20260906201039 37 133 9.7 16.1 0.00 0.00 0.00 35 1012.4
20260906200519 37 126 4.8 12.9 0.00 0.00 0.00 35 1012.4
20260906200019 37 190 9.7 14.5 0.00 0.00 0.00 34 1012.6
20260906195519 37 181 8.0 14.5 0.00 0.00 0.00 34 1012.7
20260906195019 37 189 6.4 14.5 0.00 0.00 0.00 33 1012.7
20260906194519 37 162 9.7 17.7 0.00 0.00 0.00 34 1012.7
20260906194019 37 56 4.8 11.3 0.00 0.00 0.00 36 1012.8
20260906193600 37 106 4.8 12.9 0.00 0.00 0.00 36 1012.9
20260906193019 37 97 6.4 16.1 0.00 0.00 0.00 35 1012.9
20260906192516 37 124 8.0 14.5 0.00 0.00 0.00 35 1013.0
20260906192016 37 138 8.0 14.5 0.00 0.00 0.00 35 1013.0
20260906191516 37 159 4.8 11.3 0.00 0.00 0.00 35 1013.1
20260906191020 36 164 4.8 11.3 0.00 0.00 0.00 36 1013.1
20260906190520 36 123 4.8 12.9 0.00 0.00 0.00 37 1013.2
20260906190020 36 105 6.4 11.3 0.00 0.00 0.00 38 1013.3
20260906185520 36 84 4.8 9.7 0.00 0.00 0.00 38 1013.4
20260906185020 36 95 8.0 14.5 0.00 0.00 0.00 38 1013.4
20260906184520 35 97 6.4 11.3 0.00 0.00 0.00 38 1013.5
20260906184017 35 74 4.8 16.1 0.00 0.00 0.00 39 1013.6
20260906183537 35 41 3.2 9.7 0.00 0.00 0.00 40 1013.7
20260906183017 35 44 6.4 9.7 0.00 0.00 0.00 40 1013.7
20260906182538 36 65 4.8 11.3 0.00 0.00 0.00 40 1013.8
20260906182018 36 98 8.0 14.5 0.00 0.00 0.00 39 1013.9
20260906181518 36 80 11.3 16.1 0.00 0.00 0.00 38 1013.8
20260906181020 36 161 4.8 12.9 0.00 0.00 0.00 39 1013.9
20260906180540 36 147 8.0 19.3 0.00 0.00 0.00 39 1014.1
20260906180021 36 144 4.8 9.7 0.00 0.00 0.00 40 1014.1
20260906175518 35 73 3.2 8.0 0.00 0.00 0.00 40 1014.2
20260906175018 35 48 6.4 12.9 0.00 0.00 0.00 41 1014.3
20260906174538 35 76 6.4 12.9 0.00 0.00 0.00 41 1014.4
20260906174018 35 145 6.4 11.3 0.00 0.00 0.00 41 1014.6
20260906173518 35 169 4.8 19.3 0.00 0.00 0.00 41 1014.6
20260906173018 35 164 4.8 11.3 0.00 0.00 0.00 42 1014.7
20260906172518 35 173 8.0 16.1 0.00 0.00 0.00 42 1014.8
20260906172018 35 156 3.2 8.0 0.00 0.00 0.00 42 1014.9
20260906171518 35 193 8.0 14.5 0.00 0.00 0.00 41 1015.0
20260906170950 35 0.0 0.0 0.00 0.00 0.00 41 1015.0
20260906170018 34 201 4.8 11.3 0.00 0.10 0.00 43 1015.2
20260906165538 35 218 9.7 12.9 0.00 0.10 0.00 43 1015.2
20260906164519 34 148 3.2 8.0 0.00 0.10 0.00 43 1015.4
20260906164039 34 36 3.2 6.4 0.00 0.10 0.00 43 1015.4
20260906163019 34 271 3.2 8.0 0.00 0.10 0.00 43 1015.4
20260906162519 34 280 3.2 8.0 0.00 0.10 0.00 43 1015.3
20260906162039 34 241 4.8 11.3 0.00 0.10 0.00 43 1015.3
20260906161519 33 162 3.2 9.7 0.00 0.10 0.00 44 1015.3
20260906161019 33 188 4.8 11.3 0.00 0.10 0.00 44 1015.3
20260906160519 33 130 3.2 8.0 0.00 0.10 0.00 44 1015.3
20260906160019 33 240 1.6 6.4 0.00 0.10 0.00 46 1015.3
20260906155519 33 155 4.8 9.7 0.00 0.10 0.00 45 1015.2
20260906155019 33 208 4.8 9.7 0.00 0.10 0.00 45 1015.2
20260906154519 33 239 4.8 9.7 0.00 0.10 0.00 46 1015.2
20260906154016 32 165 3.2 9.7 0.00 0.10 0.00 47 1015.2
20260906153516 32 236 4.8 11.3 0.00 0.10 0.00 47 1015.1
20260906153020 32 242 6.4 11.3 0.00 0.10 0.00 47 1015.1
20260906152520 32 206 4.8 9.7 0.00 0.10 0.00 48 1015.1
20260906152020 32 214 4.8 8.0 0.00 0.10 0.00 49 1015.1
20260906151600 32 262 4.8 8.0 0.00 0.10 0.00 49 1015.1
20260906151040 32 236 4.8 9.7 0.00 0.10 0.00 49 1015.1
20260906150520 32 241 6.4 14.5 0.00 0.10 0.00 49 1015.1
20260906150017 31 242 4.8 8.0 0.00 0.10 0.00 50 1015.1
20260906145517 31 265 8.0 12.9 0.00 0.10 0.00 50 1015.1
20260906145017 31 252 8.0 11.3 0.00 0.10 0.00 51 1015.1
20260906144517 31 242 6.4 11.3 0.00 0.10 0.00 51 1015.1
20260906144017 31 256 6.4 11.3 0.00 0.10 0.00 51 1015.1
20260906143537 31 223 6.4 11.3 0.00 0.10 0.00 51 1015.0
20260906143020 31 231 6.4 9.7 0.00 0.10 0.00 51 1015.0
20260906142520 30 252 4.8 9.7 0.00 0.10 0.00 52 1015.0
20260906142021 30 220 4.8 6.4 0.00 0.10 0.00 53 1015.0
20260906141558 30 223 4.8 8.0 0.00 0.10 0.00 54 1015.0
20260906141018 30 231 4.8 9.7 0.00 0.10 0.00 54 1015.0
20260906140517 30 234 6.4 11.3 0.00 0.10 0.00 54 1014.9
20260906140017 29 236 4.8 8.0 0.00 0.10 0.00 54 1014.9
20260906135538 29 204 6.4 9.7 0.00 0.10 0.00 55 1014.9
20260906135018 28 215 4.8 8.0 0.00 0.10 0.00 56 1014.8
20260906134538 28 211 4.8 9.7 0.00 0.13 0.00 57 1014.8
20260906134018 28 214 6.4 9.7 0.00 0.13 0.00 58 1014.8
20260906133538 28 207 4.8 8.0 0.00 0.13 0.00 58 1014.7
20260906133018 27 201 4.8 8.0 0.00 0.13 0.00 59 1014.7
20260906132518 27 203 4.8 8.0 0.00 0.13 0.00 60 1014.7
20260906132018 27 200 4.8 6.4 0.00 0.13 0.00 60 1014.7
20260906131518 27 204 3.2 6.4 0.00 0.13 0.00 60 1014.6
20260906131038 27 195 1.6 4.8 0.00 0.13 0.00 61 1014.6
20260906130518 27 219 4.8 6.4 0.00 0.13 0.00 61 1014.6
20260906130018 27 200 3.2 6.4 0.00 0.13 0.00 61 1014.5
20260906125518 27 201 3.2 6.4 0.00 0.13 0.00 61 1014.5
20260906125018 27 198 3.2 6.4 0.00 0.13 0.00 61 1014.4
20260906124519 27 211 3.2 6.4 0.00 0.13 0.00 61 1014.4
20260906124019 26 207 3.2 6.4 0.00 0.13 0.00 61 1014.4
20260906123519 26 192 4.8 6.4 0.00 0.13 0.00 61 1014.3
20260906123019 26 195 3.2 6.4 0.00 0.13 0.00 61 1014.3
20260906122519 26 203 1.6 4.8 0.00 0.13 0.00 62 1014.2
20260906122019 26 187 3.2 4.8 0.00 0.13 0.00 62 1014.1
20260906121519 26 190 3.2 6.4 0.00 0.13 0.00 62 1014.1
20260906121019 26 192 3.2 6.4 0.00 0.13 0.00 62 1014.1
20260906120519 26 186 3.2 6.4 0.00 0.13 0.00 61 1014.1
20260906120016 26 214 4.8 6.4 0.00 0.13 0.00 61 1014.0
20260906115516 26 211 3.2 8.0 0.00 0.13 0.00 62 1014.0
20260906115019 26 202 4.8 8.0 0.00 0.13 0.00 61 1014.0
20260906114519 26 192 3.2 8.0 0.00 0.13 0.00 61 1013.9
20260906114019 26 189 1.6 4.8 0.00 0.13 0.00 61 1013.8
20260906113519 26 195 1.6 4.8 0.00 0.13 0.00 61 1013.7
20260906113020 26 184 3.2 6.4 0.00 0.13 0.00 61 1013.7
20260906112519 27 192 1.6 4.8 0.00 0.13 0.00 61 1013.7
20260906112020 27 198 4.8 6.4 0.00 0.13 0.00 61 1013.6
20260906111537 27 197 3.2 6.4 0.00 0.13 0.00 60 1013.6
20260906111017 27 193 3.2 6.4 0.00 0.13 0.00 60 1013.5
20260906110517 27 206 3.2 4.8 0.00 0.13 0.00 60 1013.5
20260906110017 27 191 3.2 4.8 0.00 0.13 0.00 60 1013.5
20260906105517 27 214 3.2 6.4 0.00 0.13 0.00 60 1013.5
20260906105040 27 66 1.6 4.8 0.00 0.13 0.00 60 1013.4
20260906104520 27 205 4.8 8.0 0.00 0.13 0.00 60 1013.4
20260906104021 27 203 3.2 6.4 0.00 0.13 0.00 60 1013.4
20260906103517 27 213 6.4 12.9 0.00 0.13 0.00 59 1013.3
20260906103017 27 201 3.2 4.8 0.00 0.13 0.00 59 1013.3
20260906102518 27 197 4.8 6.4 0.00 0.13 0.00 59 1013.3
20260906102018 27 200 3.2 8.0 0.00 0.13 0.00 59 1013.3
20260906101518 27 213 3.2 6.4 0.00 0.13 0.00 58 1013.2
20260906101017 27 206 4.8 6.4 0.00 0.13 0.00 58 1013.2
20260906100518 27 206 3.2 4.8 0.00 0.13 0.00 58 1013.2
20260906100021 27 215 3.2 6.4 0.00 0.13 0.00 58 1013.2
20260906095521 27 204 3.2 6.4 0.00 0.13 0.00 58 1013.2
20260906095018 27 206 4.8 8.0 0.00 0.13 0.00 57 1013.2
20260906094538 28 197 4.8 6.4 0.00 0.13 0.00 57 1013.2
20260906094018 28 210 3.2 8.0 0.00 0.13 0.00 56 1013.1
20260906093518 28 225 1.6 6.4 0.00 0.13 0.00 56 1013.1
20260906093018 28 241 1.6 4.8 0.00 0.13 0.00 56 1013.1
20260906092518 28 252 3.2 6.4 0.00 0.13 0.00 56 1013.1
20260906092018 28 219 1.6 4.8 0.00 0.13 0.00 56 1013.2
20260906091519 28 325 1.6 3.2 0.00 0.13 0.00 56 1013.2
20260906091019 28 339 1.6 4.8 0.00 0.13 0.00 55 1013.2
20260906090518 28 57 3.2 8.0 0.00 0.13 0.00 55 1013.2
20260906090018 28 246 1.6 4.8 0.00 0.13 0.00 55 1013.1
20260906085518 28 189 1.6 4.8 0.00 0.13 0.00 55 1013.1
20260906085019 28 210 4.8 12.9 0.00 0.13 0.00 55 1013.2
20260906084519 28 209 1.6 4.8 0.00 0.13 0.00 55 1013.1
20260906084019 28 228 3.2 4.8 0.00 0.13 0.00 55 1013.1
20260906083519 28 228 3.2 4.8 0.00 0.13 0.00 54 1013.0
20260906083019 28 206 4.8 6.4 0.00 0.13 0.00 54 1013.0
20260906082519 28 219 4.8 6.4 0.00 0.13 0.00 54 1012.9
20260906082039 28 242 4.8 8.0 0.00 0.13 0.00 54 1012.9
20260906081516 28 213 4.8 6.4 0.00 0.13 0.00 53 1012.9
20260906081016 29 204 4.8 6.4 0.00 0.13 0.00 53 1012.9
20260906080516 29 213 4.8 6.4 0.00 0.13 0.00 52 1012.9
20260906080019 29 210 3.2 6.4 0.00 0.13 0.00 52 1012.9
20260906075520 29 217 3.2 4.8 0.00 0.13 0.00 52 1012.9
20260906075019 29 241 3.2 6.4 0.00 0.13 0.00 51 1013.0
20260906074520 29 235 3.2 4.8 0.00 0.13 0.00 51 1012.9
20260906074040 29 213 3.2 4.8 0.00 0.13 0.00 51 1012.9
20260906073519 29 222 1.6 4.8 0.00 0.13 0.00 51 1013.0
20260906073020 29 245 0.0 3.2 0.00 0.13 0.00 51 1013.0
20260906072519 29 224 3.2 4.8 0.00 0.13 0.00 51 1013.0
20260906072017 30 217 3.2 4.8 0.00 0.13 0.00 51 1013.0
20260906071517 29 212 3.2 4.8 0.00 0.13 0.00 51 1013.0
20260906071017 30 229 1.6 4.8 0.00 0.13 0.00 51 1013.1
20260906070517 30 212 0.0 3.2 0.00 0.13 0.00 51 1013.1
20260906070020 30 239 1.6 4.8 0.00 0.13 0.00 50 1013.0
20260906065520 30 202 3.2 4.8 0.00 0.13 0.00 50 1013.0
20260906065020 30 215 1.6 4.8 0.00 0.13 0.00 50 1013.0
20260906064537 30 210 3.2 4.8 0.00 0.13 0.00 50 1012.9
20260906064017 30 207 3.2 4.8 0.00 0.13 0.00 49 1012.9
20260906063517 30 247 3.2 6.4 0.00 0.13 0.00 49 1013.0
20260906063018 30 259 3.2 4.8 0.00 0.13 0.00 49 1013.0
20260906062518 30 277 3.2 6.4 0.00 0.13 0.00 49 1013.0
20260906062038 30 251 3.2 9.7 0.00 0.13 0.00 50 1013.0
20260906061518 30 246 3.2 6.4 0.00 0.13 0.00 50 1013.0
20260906061021 30 293 3.2 8.0 0.00 0.13 0.00 50 1013.0
20260906060518 30 314 3.2 9.7 0.00 0.13 0.00 50 1013.0
20260906060018 30 314 4.8 11.3 0.00 0.13 0.00 49 1013.1
20260906055518 30 313 4.8 9.7 0.00 0.13 0.00 49 1013.1
20260906055038 30 315 4.8 16.1 0.00 0.13 0.00 49 1013.0
20260906054518 30 315 4.8 9.7 0.00 0.13 0.00 48 1013.0
20260906054038 30 315 4.8 12.9 0.00 0.13 0.00 48 1013.0
20260906053519 30 313 3.2 4.8 0.00 0.13 0.00 48 1012.9
20260906053018 31 293 3.2 11.3 0.00 0.13 0.00 48 1012.8
20260906052518 31 296 4.8 9.7 0.00 0.13 0.00 48 1012.8
20260906052019 31 313 3.2 4.8 0.00 0.13 0.00 47 1012.7
20260906051519 31 313 3.2 12.9 0.00 0.13 0.00 48 1012.7
20260906051019 31 319 3.2 6.4 0.00 0.13 0.00 48 1012.7
20260906050519 31 314 3.2 4.8 0.00 0.13 0.00 48 1012.7
20260906050019 31 314 3.2 4.8 0.00 0.13 0.00 48 1012.7
20260906045519 31 314 3.2 4.8 0.00 0.13 0.13 48 1012.7
20260906045039 31 312 3.2 6.4 0.00 0.13 0.13 47 1012.7
20260906044539 31 294 3.2 9.7 0.00 0.13 0.13 47 1012.7
20260906044019 31 300 3.2 4.8 0.00 0.13 0.13 47 1012.7
20260906043519 31 303 3.2 6.4 0.00 0.13 0.13 47 1012.7
20260906043019 31 297 3.2 6.4 0.00 0.13 0.13 46 1012.7
20260906042516 31 332 4.8 16.1 0.00 0.13 0.13 46 1012.7
20260906042019 31 306 3.2 4.8 0.00 0.13 0.13 46 1012.8
20260906041519 31 313 3.2 4.8 0.00 0.13 0.13 46 1012.8
20260906041019 31 313 3.2 6.4 0.00 0.13 0.13 46 1012.8
20260906040519 31 314 3.2 4.8 0.00 0.13 0.13 46 1012.8
20260906040019 31 314 3.2 6.4 0.00 0.13 0.13 46 1012.8
20260906035520 31 326 4.8 12.9 0.00 0.13 0.13 46 1012.9
20260906035020 31 294 3.2 6.4 0.00 0.13 0.13 46 1012.9
20260906034517 31 294 3.2 4.8 0.00 0.13 0.13 46 1012.8
20260906034037 31 272 3.2 6.4 0.00 0.13 0.13 46 1012.8
20260906033517 32 219 4.8 8.0 0.00 0.13 0.13 46 1012.7
20260906033017 32 229 4.8 6.4 0.00 0.13 0.13 45 1012.7
20260906032537 32 218 3.2 6.4 0.00 0.13 0.13 45 1012.7
20260906032040 32 199 4.8 8.0 0.00 0.13 0.13 45 1012.6
20260906031520 32 180 6.4 9.7 0.00 0.13 0.13 44 1012.7
20260906031020 32 185 4.8 8.0 0.00 0.13 0.13 44 1012.7
20260906030017 32 179 4.8 8.0 0.00 0.13 0.13 43 1012.7
20260906025517 33 182 4.8 9.7 0.00 0.13 0.13 43 1012.6
20260906025018 33 178 4.8 9.7 0.00 0.13 0.13 42 1012.5
20260906024517 33 192 3.2 8.0 0.00 0.13 0.13 42 1012.5
20260906024017 33 197 6.4 12.9 0.00 0.13 0.13 41 1012.5
20260906023538 33 164 6.4 9.7 0.00 0.13 0.13 41 1012.4
20260906023021 33 165 6.4 9.7 0.00 0.13 0.13 41 1012.4
20260906022518 33 163 6.4 9.7 0.00 0.13 0.13 41 1012.3
20260906022019 33 166 6.4 9.7 0.00 0.13 0.13 40 1012.2
20260906021518 34 165 6.4 9.7 0.00 0.13 0.13 40 1012.2
20260906021038 34 149 3.2 9.7 0.00 0.13 0.13 40 1012.1
20260906020518 34 160 4.8 8.0 0.00 0.13 0.13 40 1012.1
20260906020018 34 136 4.8 9.7 0.00 0.13 0.13 40 1012.1
20260906015518 34 154 6.4 9.7 0.00 0.13 0.13 39 1012.1
20260906015058 34 154 4.8 9.7 0.00 0.13 0.13 39 1012.0
20260906014518 34 149 3.2 6.4 0.00 0.13 0.13 39 1011.9
20260906014018 35 168 3.2 6.4 0.00 0.13 0.13 39 1011.9
20260906013519 35 159 4.8 8.0 0.00 0.13 0.13 39 1011.8
20260906013019 35 168 4.8 9.7 0.00 0.13 0.13 39 1011.7
20260906012538 35 160 4.8 9.7 0.00 0.13 0.13 38 1011.7
20260906012019 35 165 4.8 8.0 0.00 0.13 0.13 38 1011.7
20260906011519 35 142 6.4 9.7 0.00 0.13 0.13 38 1011.7
20260906011039 35 138 6.4 9.7 0.00 0.13 0.13 38 1011.6
20260906010519 35 124 4.8 8.0 0.00 0.13 0.13 38 1011.6
20260906010019 35 120 4.8 8.0 0.00 0.13 0.13 37 1011.5
20260906005519 36 93 6.4 14.5 0.00 0.13 0.13 37 1011.5
20260906005019 36 136 8.0 12.9 0.00 0.13 0.10 37 1011.4
20260906004559 36 139 6.4 12.9 0.00 0.13 0.10 36 1011.4
20260906004016 36 133 8.0 14.5 0.00 0.13 0.10 36 1011.4
20260906003517 36 139 8.0 14.5 0.00 0.13 0.10 36 1011.4
20260906003019 36 133 6.4 12.9 0.00 0.13 0.10 35 1011.4
20260906002520 36 133 8.0 14.5 0.00 0.13 0.10 35 1011.3
20260906002039 36 131 8.0 16.1 0.00 0.13 0.10 35 1011.2
20260906001519 36 129 8.0 12.9 0.00 0.13 0.10 35 1011.3
20260906001019 37 122 8.0 12.9 0.00 0.13 0.10 34 1011.2
20260906000520 37 129 9.7 14.5 0.00 0.13 0.10 34 1011.2
20260906000019 37 146 11.3 14.5 0.00 0.13 0.10 34 1011.2
20260905235517 37 141 8.0 14.5 0.00 0.13 0.10 34 1011.2
20260905235017 37 148 9.7 14.5 0.00 0.13 0.10 34 1011.1
20260905234517 37 138 11.3 16.1 0.00 0.13 0.10 34 1011.1
20260905234017 37 106 8.0 14.5 0.00 0.13 0.10 34 1011.0
20260905233517 37 121 9.7 16.1 0.00 0.13 0.10 34 1010.9
20260905233020 37 124 9.7 12.9 0.00 0.13 0.10 34 1010.9
20260905232520 37 101 8.0 12.9 0.00 0.13 0.10 34 1010.9
20260905232020 37 88 9.7 16.1 0.00 0.13 0.10 35 1010.8
20260905231520 37 168 8.0 14.5 0.00 0.13 0.10 35 1010.9
20260905231017 37 173 8.0 14.5 0.00 0.13 0.10 35 1010.9
20260905230518 37 162 11.3 19.3 0.00 0.13 0.10 35 1010.9
20260905230017 37 149 9.7 16.1 0.00 0.13 0.10 34 1010.9
20260905225518 37 129 8.0 14.5 0.00 0.13 0.10 34 1010.8
20260905225018 37 117 8.0 14.5 0.00 0.13 0.10 34 1010.8
20260905224538 37 136 9.7 14.5 0.00 0.13 0.10 35 1010.8
20260905224037 37 166 11.3 22.5 0.00 0.13 0.10 35 1010.8
20260905223518 37 73 6.4 16.1 0.00 0.13 0.10 35 1010.8
20260905223021 37 205 4.8 11.3 0.00 0.13 0.10 34 1010.8
20260905222518 37 155 6.4 16.1 0.00 0.13 0.10 35 1010.9
20260905222038 37 205 12.9 22.5 0.00 0.13 0.10 35 1010.9
20260905221518 37 154 12.9 19.3 0.00 0.13 0.10 35 1010.8
20260905221018 37 188 9.7 17.7 0.00 0.13 0.10 35 1010.9
20260905220518 37 167 9.7 19.3 0.00 0.13 0.10 35 1011.0
20260905220038 37 193 9.7 16.1 0.00 0.13 0.10 34 1011.0
20260905215518 36 166 8.0 20.9 0.00 0.13 0.10 35 1011.0
20260905215038 37 165 9.7 16.1 0.00 0.13 0.10 35 1011.1
20260905214519 37 134 11.3 17.7 0.00 0.13 0.10 34 1011.2
20260905214018 37 203 8.0 14.5 0.00 0.13 0.10 34 1011.3
20260905213539 37 154 9.7 17.7 0.00 0.13 0.10 35 1011.3
20260905213018 37 154 9.7 17.7 0.00 0.13 0.10 34 1011.4
20260905212518 36 164 8.0 17.7 0.00 0.13 0.10 35 1011.4
20260905212039 37 172 9.7 16.1 0.00 0.13 0.10 34 1011.5
20260905211519 37 155 8.0 16.1 0.00 0.13 0.10 34 1011.5
20260905211019 37 154 11.3 20.9 0.00 0.13 0.10 34 1011.6
20260905210519 37 134 8.0 12.9 0.00 0.13 0.10 35 1011.6
20260905210019 36 141 8.0 16.1 0.00 0.13 0.10 36 1011.7
20260905205519 37 167 12.9 20.9 0.00 0.13 0.10 35 1011.8
20260905205019 37 181 14.5 22.5 0.00 0.13 0.10 35 1011.8
20260905204519 37 165 11.3 16.1 0.00 0.13 0.10 36 1011.9